Location: Normandy Village
(37.8755°N, 122.2655°W)
Time: 14:42:45
(UTC+00:00)

CZ-4B R/B - Pass Details

Date: 22 September 2019
Orbit: 808 x 882 km, 99.1° (Epoch: 18 October)

Event Time Altitude Azimuth Distance (km) Brightness Sun altitude
Rises 13:07:07 0° 20° (NNE) 3,424 6.8 -10.6°
Reaches altitude 10° 13:09:37 10° 27° (NNE) 2,472 6.1 -10.1°
Maximum altitude 13:14:52 46° 100° (E) 1,111 4.4 -9.1°
Drops below altitude 10° 13:19:58 10° 173° (S) 2,413 5.6 -8.1°
Sets 13:22:23 0° 179° (S) 3,332 6.3 -7.6°
